Regional Weather Roundup
Issued by NWS

Home | Current Version | Previous Version | Text Only | Print | Product List | Glossary On
Versions: 1 2 3 4 5 6 7 8 9 10 11 12 13 14 15 16 17 18 19 20 21 22 23 24 25 26 27 28 29 30 31 32 33 34 35 36 37 38 39 40 41 42 43 44 45 46 47 48 49 50
000
ASUS43 KTOP 240159
RWRKS

WEATHER ROUNDUP FOR KANSAS
NATIONAL WEATHER SERVICE GOODLAND KS
900 PM CDT WED JUL 23 2014

NOTE:  "FAIR" INDICATES FEW OR NO CLOUDS BELOW 12,000 FEET WITH NO
SIGNIFICANT WEATHER AND/OR OBSTRUCTIONS TO VISIBILITY.

KSZ001>006-013>018-027>032-041>047-240300-
NORTHWEST KANSAS

CITY           SKY/WX    TMP DP  RH WIND       PRES   REMARKS
GOODLAND       PTCLDY    79  63  57 SE7       30.18S
HAYS           CLEAR     79  61  53 E14       30.14R
HILL CITY      CLEAR     78  65  63 E9        30.15R
RUSSELL        CLEAR     78  64  61 NE7       30.12R
$$

KSZ061>065-074>080-084>089-240300-
SOUTHWEST KANSAS

CITY           SKY/WX    TMP DP  RH WIND       PRES   REMARKS
DODGE CITY     CLEAR     82  68  62 SE8       30.14R
ELKHART          N/A     81  68  65 SE3         N/A
GARDEN CITY    CLEAR     81  70  69 SE7       30.14R
GREAT BEND     CLEAR     82  66  57 E8        30.11R
LIBERAL        CLEAR     88  66  48 E14       30.15R
$$

KSZ066>073-081>083-090>101-240300-
SOUTHEAST KANSAS

CITY           SKY/WX    TMP DP  RH WIND       PRES   REMARKS
CHANUTE        CLEAR     80  65  59 E7        30.09R
COFFEYVILLE    CLEAR     78  69  73 NE6       30.05S
HUTCHINSON     CLEAR     78  66  66 E6        30.11R
MEDICINE LODGE   N/A     85  67  54 E6        30.09R
NEWTON         CLEAR     81  63  54 E3        30.15R
PARSONS        CLEAR     77  67  71 CALM      30.08S
WICHITA INTL   PTCLDY    81  64  56 E8        30.10R
WICHITA JABRA  CLEAR     78  66  66 E5        30.11R
WINFIELD       CLEAR     82  71  69 NE5       30.10R
$$

KSZ007>012-019>026-033>040-048>060-102>105-240300-
NORTHEAST KANSAS

CITY           SKY/WX    TMP DP  RH WIND       PRES   REMARKS
CONCORDIA      CLEAR     78  62  57 E5        30.14R
EMPORIA        CLEAR     77  63  61 NE8       30.11R
LAWRENCE       CLEAR     75  66  73 N3        30.11R
MANHATTAN      CLEAR     80  62  54 E5        30.12R
OLATHE IND     CLEAR     79  63  57 E8        30.12R
OLATHE EXE     CLEAR     78  61  55 E7        30.11R
SALINA         CLEAR     86  62  44 E9        30.11R
TOPEKA BILLARD CLEAR     80  66  62 NE5       30.12R
TOPEKA FORBES  CLEAR     79  64  60 E6        30.12R
$$


USA.gov is the U.S. government's official web portal to all federal, state and local government web resources and services.